Time,TemperatureF,DewpointF,PressureIn,WindDirection,WindDirectionDegrees,WindSpeedMPH,WindSpeedGustMPH,Humidity,HourlyPrecipIn,Conditions,Clouds,dailyrainin,SoftwareType,DateUTC
2013-10-25 01:51:00,44.0,35.0,-100.00,West,270,4.0,5.0,68,-99.99,,,-99.99,,2013-10-25 07:51:00,
2013-10-25 02:00:00,44.0,34.0,-100.00,SW,230,5.0,7.0,69,-99.99,,,0.00,,2013-10-25 08:00:00,
2013-10-25 02:10:00,44.0,34.0,-100.00,West,260,3.0,4.0,69,-99.99,,,0.00,,2013-10-25 08:10:00,
2013-10-25 02:21:00,44.0,34.0,-100.00,West,260,3.0,4.0,69,-99.99,,,0.00,,2013-10-25 08:21:00,
2013-10-25 02:41:00,44.0,34.0,-100.00,SW,230,5.0,7.0,69,-99.99,,,0.00,,2013-10-25 08:41:00,
2013-10-25 02:51:00,44.0,34.0,-100.00,SW,230,5.0,7.0,69,-99.99,,,0.00,,2013-10-25 08:51:00,
2013-10-25 03:21:00,43.0,34.0,-100.00,SW,215,3.0,4.0,70,-99.99,,,0.00,,2013-10-25 09:21:00,
2013-10-25 03:52:00,43.0,34.0,-100.00,SSW,205,4.0,4.0,69,-99.99,,,0.00,,2013-10-25 09:52:00,
2013-10-25 04:00:00,41.0,33.0,-100.00,WSW,250,6.0,9.0,71,-99.99,,,0.00,,2013-10-25 10:00:00,
2013-10-25 04:11:00,42.0,33.0,-100.00,SW,225,6.0,8.0,72,-99.99,,,0.00,,2013-10-25 10:11:00,
2013-10-25 04:51:00,41.0,33.0,-100.00,WSW,250,6.0,9.0,71,-99.99,,,0.00,,2013-10-25 10:51:00,
2013-10-25 05:51:00,41.0,32.0,-100.00,West,270,6.0,9.0,72,-99.99,,,0.00,,2013-10-25 11:51:00,
2013-10-25 06:10:00,41.0,32.0,-100.00,WSW,255,7.0,9.0,70,-99.99,,,0.00,,2013-10-25 12:10:00,
2013-10-25 06:21:00,41.0,32.0,-100.00,WSW,255,7.0,9.0,70,-99.99,,,0.00,,2013-10-25 12:21:00,
2013-10-25 06:41:00,41.0,32.0,-100.00,WSW,245,9.0,11.0,71,-99.99,,,0.00,,2013-10-25 12:41:00,
2013-10-25 06:51:00,41.0,32.0,-100.00,WSW,245,9.0,11.0,71,-99.99,,,0.00,,2013-10-25 12:51:00,
2013-10-25 07:00:00,43.0,33.0,-100.00,West,260,12.0,16.0,67,-99.99,,,0.00,,2013-10-25 13:00:00,
2013-10-25 07:11:00,41.0,33.0,-100.00,West,265,11.0,14.0,71,-99.99,,,0.00,,2013-10-25 13:11:00,
2013-10-25 07:21:00,41.0,33.0,-100.00,West,265,11.0,14.0,71,-99.99,,,0.00,,2013-10-25 13:21:00,
2013-10-25 07:41:00,43.0,33.0,-100.00,West,260,12.0,16.0,67,-99.99,,,0.00,,2013-10-25 13:41:00,
2013-10-25 07:52:00,43.0,33.0,-100.00,West,260,12.0,16.0,67,-99.99,,,0.00,,2013-10-25 13:52:00,
2013-10-25 08:00:00,43.0,32.0,-100.00,West,280,5.0,10.0,64,-99.99,,,0.00,,2013-10-25 14:00:00,
2013-10-25 08:22:00,44.0,32.0,-100.00,West,270,12.0,15.0,64,-99.99,,,0.00,,2013-10-25 14:22:00,
2013-10-25 08:42:00,43.0,32.0,-100.00,West,280,5.0,10.0,64,-99.99,,,0.00,,2013-10-25 14:42:00,
2013-10-25 08:52:00,43.0,32.0,-100.00,West,280,5.0,10.0,64,-99.99,,,0.00,,2013-10-25 14:52:00,
2013-10-25 09:01:00,45.0,33.0,-100.00,West,260,9.0,11.0,63,-99.99,,,0.00,,2013-10-25 15:01:00,
2013-10-25 09:21:00,44.0,33.0,-100.00,West,265,10.0,13.0,64,-99.99,,,0.00,,2013-10-25 15:21:00,
2013-10-25 09:43:00,45.0,33.0,-100.00,West,260,9.0,11.0,63,-99.99,,,0.00,,2013-10-25 15:43:00,
2013-10-25 09:53:00,45.0,33.0,-100.00,West,260,9.0,11.0,63,-99.99,,,0.00,,2013-10-25 15:53:00,
2013-10-25 10:00:00,50.0,34.0,-100.00,WSW,250,10.0,12.0,53,-99.99,,,0.00,,2013-10-25 16:00:00,
2013-10-25 10:23:00,47.0,34.0,-100.00,WSW,255,11.0,14.0,60,-99.99,,,0.00,,2013-10-25 16:23:00,
2013-10-25 10:43:00,50.0,34.0,-100.00,WSW,250,10.0,12.0,53,-99.99,,,0.00,,2013-10-25 16:43:00,
2013-10-25 10:53:00,50.0,34.0,-100.00,WSW,250,10.0,12.0,53,-99.99,,,0.00,,2013-10-25 16:53:00,
2013-10-25 11:00:00,56.0,34.0,-100.00,West,270,12.0,17.0,43,-99.99,,,0.00,,2013-10-25 17:00:00,
2013-10-25 11:22:00,53.0,33.0,-100.00,WSW,255,13.0,17.0,47,-99.99,,,0.00,,2013-10-25 17:22:00,
2013-10-25 11:43:00,56.0,34.0,-100.00,West,270,12.0,17.0,43,-99.99,,,0.00,,2013-10-25 17:43:00,
2013-10-25 11:52:00,56.0,34.0,-100.00,West,270,12.0,17.0,43,-99.99,,,0.00,,2013-10-25 17:52:00,
2013-10-25 12:00:00,60.0,31.0,-100.00,West,260,13.0,16.0,33,-99.99,,,0.00,,2013-10-25 18:00:00,
2013-10-25 12:21:00,58.0,33.0,-100.00,West,265,14.0,17.0,39,-99.99,,,0.00,,2013-10-25 18:21:00,
2013-10-25 12:30:00,62.0,31.0,-100.00,WNW,285,8.0,14.0,31,-99.99,,,0.00,,2013-10-25 18:30:00,
2013-10-25 12:42:00,60.0,31.0,-100.00,West,260,13.0,16.0,33,-99.99,,,0.00,,2013-10-25 18:42:00,
2013-10-25 12:52:00,60.0,31.0,-100.00,West,260,13.0,16.0,33,-99.99,,,0.00,,2013-10-25 18:52:00,
2013-10-25 13:00:00,64.0,31.0,-100.00,NNW,330,13.0,22.0,29,-99.99,,,0.00,,2013-10-25 19:00:00,
2013-10-25 13:22:00,62.0,31.0,-100.00,WNW,285,8.0,14.0,31,-99.99,,,0.00,,2013-10-25 19:22:00,
2013-10-25 13:52:00,64.0,31.0,-100.00,NNW,330,13.0,22.0,29,-99.99,,,0.00,,2013-10-25 19:52:00,
2013-10-25 14:00:00,66.0,31.0,-100.00,North,355,10.0,17.0,27,-99.99,,,0.00,,2013-10-25 20:00:00,
2013-10-25 14:22:00,65.0,30.0,-100.00,NNW,330,10.0,16.0,27,-99.99,,,0.00,,2013-10-25 20:22:00,
2013-10-25 14:42:00,66.0,31.0,-100.00,North,355,10.0,17.0,27,-99.99,,,0.00,,2013-10-25 20:42:00,
2013-10-25 14:52:00,66.0,31.0,-100.00,North,355,10.0,17.0,27,-99.99,,,0.00,,2013-10-25 20:52:00,
2013-10-25 15:01:00,64.0,30.0,-100.00,North,0,12.0,19.0,28,-99.99,,,0.00,,2013-10-25 21:01:00,
2013-10-25 15:21:00,65.0,32.0,-100.00,North,5,9.0,14.0,29,-99.99,,,0.00,,2013-10-25 21:21:00,
2013-10-25 15:43:00,64.0,30.0,-100.00,North,0,12.0,19.0,28,-99.99,,,0.00,,2013-10-25 21:43:00,
2013-10-25 15:54:00,64.0,30.0,-100.00,North,0,12.0,19.0,28,-99.99,,,0.00,,2013-10-25 21:54:00,
2013-10-25 16:23:00,64.0,30.0,-100.00,NNE,30,8.0,17.0,28,-99.99,,,0.00,,2013-10-25 22:23:00,
2013-10-25 16:42:00,63.0,31.0,-100.00,North,5,10.0,16.0,29,-99.99,,,0.00,,2013-10-25 22:42:00,
2013-10-25 16:52:00,63.0,31.0,-100.00,North,5,10.0,16.0,29,-99.99,,,0.00,,2013-10-25 22:52:00,
2013-10-25 17:12:00,62.0,29.0,-100.00,NE,40,12.0,14.0,28,-99.99,,,0.00,,2013-10-25 23:12:00,
2013-10-25 17:42:00,61.0,28.0,-100.00,NE,40,8.0,12.0,28,-99.99,,,0.00,,2013-10-25 23:42:00,
2013-10-25 17:52:00,61.0,28.0,-100.00,NE,40,8.0,12.0,28,-99.99,,,0.00,,2013-10-25 23:52:00,
2013-10-25 18:11:00,59.0,28.0,-100.00,NE,50,6.0,8.0,31,-99.99,,,0.00,,2013-10-26 00:11:00,
2013-10-25 18:22:00,59.0,28.0,-100.00,NE,50,6.0,8.0,31,-99.99,,,0.00,,2013-10-26 00:22:00,
2013-10-25 18:42:00,55.0,28.0,-100.00,East,90,4.0,6.0,34,-99.99,,,0.00,,2013-10-26 00:42:00,
2013-10-25 18:52:00,55.0,28.0,-100.00,East,90,4.0,6.0,34,-99.99,,,0.00,,2013-10-26 00:52:00,
2013-10-25 19:00:00,53.0,26.0,-100.00,ENE,75,6.0,7.0,35,-99.99,,,0.00,,2013-10-26 01:00:00,
2013-10-25 19:12:00,57.0,26.0,-100.00,ENE,65,7.0,8.0,31,-99.99,,,-99.99,,2013-10-26 01:12:00,
2013-10-25 19:21:00,57.0,26.0,-100.00,ENE,65,7.0,8.0,31,-99.99,,,-99.99,,2013-10-26 01:21:00,
2013-10-25 19:42:00,53.0,26.0,-100.00,ENE,75,6.0,7.0,35,-99.99,,,0.00,,2013-10-26 01:42:00,
2013-10-25 19:52:00,53.0,26.0,-100.00,ENE,75,6.0,7.0,35,-99.99,,,0.00,,2013-10-26 01:52:00,
2013-10-25 20:22:00,52.0,26.0,-100.00,ENE,75,9.0,9.0,36,-99.99,,,0.00,,2013-10-26 02:22:00,
2013-10-25 20:43:00,51.0,26.0,-100.00,East,95,8.0,8.0,38,-99.99,,,0.00,,2013-10-26 02:43:00,
2013-10-25 20:52:00,51.0,26.0,-100.00,East,95,8.0,8.0,38,-99.99,,,0.00,,2013-10-26 02:52:00,
2013-10-25 21:00:00,50.0,26.0,-100.00,East,100,11.0,12.0,38,-99.99,,,0.00,,2013-10-26 03:00:00,
2013-10-25 21:12:00,51.0,26.0,-100.00,East,100,9.0,9.0,37,-99.99,,,0.00,,2013-10-26 03:12:00,
2013-10-25 21:22:00,51.0,26.0,-100.00,East,100,9.0,9.0,37,-99.99,,,0.00,,2013-10-26 03:22:00,
2013-10-25 21:44:00,50.0,26.0,-100.00,East,100,11.0,12.0,38,-99.99,,,0.00,,2013-10-26 03:44:00,
2013-10-25 21:54:00,50.0,26.0,-100.00,East,100,11.0,12.0,38,-99.99,,,0.00,,2013-10-26 03:54:00,
2013-10-25 22:00:00,47.0,25.0,-100.00,ENE,75,12.0,12.0,43,-99.99,,,0.00,,2013-10-26 04:00:00,
2013-10-25 22:24:00,49.0,26.0,-100.00,East,85,12.0,12.0,40,-99.99,,,0.00,,2013-10-26 04:24:00,
2013-10-25 22:44:00,47.0,25.0,-100.00,ENE,75,12.0,12.0,43,-99.99,,,0.00,,2013-10-26 04:44:00,
2013-10-25 22:54:00,47.0,25.0,-100.00,ENE,75,12.0,12.0,43,-99.99,,,0.00,,2013-10-26 04:54:00,
2013-10-25 23:00:00,47.0,25.0,-100.00,East,95,12.0,13.0,42,-99.99,,,0.00,,2013-10-26 05:00:00,
2013-10-25 23:43:00,47.0,25.0,-100.00,East,95,12.0,13.0,42,-99.99,,,0.00,,2013-10-26 05:43:00,
2013-10-25 23:52:00,47.0,25.0,-100.00,East,95,12.0,13.0,42,-99.99,,,0.00,,2013-10-26 05:52:00,